Weather observations for the past three days for
Russelville Municipal Airport
Imperial (Metric)
Date Time (cdt) Wind (mph) Vis. (mi.) Weather Sky Cond. Temperature (ºF) Relative Humidity Wind Chill (°F) Heat Index (°F) Pressure Precipitation (in)
Air Dwpt 6 hour altimeter (in) sea level (mb) 1 hr 3 hr 6 hr
Max. Min.
14 08:53 Calm 9.00 Fair CLR 75 68 79% 76 29.96 1013.9
14 07:53 Calm 7.00 Fair CLR 71.1 66 84% 29.98 1014.5
14 06:53 S 3 7.00 Fair CLR 69.1 66 71.1 68 90% 29.99 1014.5
14 05:53 Calm 8.00 Fair CLR 68 64.9 90% 30.01 1015.4
14 04:53 Calm 7.00 Fair CLR 68 64.9 90% 29.98 1014.5
14 03:53 Calm 9.00 Fair CLR 69.1 66 90% 29.96 1013.8
14 02:53 Calm 10.00 Fair CLR 70 66 87% 29.98 1014.3
14 01:53 Calm 10.00 Fair CLR 71.1 66.9 87% 29.97 1014.2
14 00:53 Calm 10.00 Fair CLR 70 66 89.1 70 87% 29.96 1013.6
13 23:53 Calm 10.00 Fair CLR 73.9 66.9 79% 29.95 1013.2
13 22:53 Calm 10.00 Fair CLR 73.9 66.9 79% 29.94 1013.0
13 21:53 Calm 10.00 Fair CLR 78.1 66.9 69% 80 29.92 1012.2
13 20:53 Calm 10.00 Fair CLR 79 69.1 72% 82 29.89 1011.5
13 19:53 Calm 10.00 Fair CLR 82.9 72 70% 88 29.9 1011.7
13 18:53 Calm 10.00 Fair CLR 89.1 68 91 84.9 50% 93 29.91 1012.1
13 17:53 Calm 10.00 Fair CLR 90 66 45% 93 29.92 1012.4
13 16:53 S 3 10.00 Fair CLR 89.1 64 43% 90 29.93 1012.9
13 15:53 SW 3 10.00 Fair CLR 89.1 63 42% 90 29.95 1013.4
13 14:53 E 6 10.00 Fair CLR 88 64 45% 89 29.96 1013.9
13 13:53 E 6 10.00 Fair CLR 88 64.9 46% 90 29.97 1014.3
13 12:53 S 5 10.00 Fair CLR 86 64 86 64.9 48% 87 29.99 1014.7
13 11:53 S 3 10.00 Fair CLR 84 63 49% 85 29.99 1014.9
13 10:53 Vrbl 5 10.00 Fair CLR 82 62.1 51% 83 29.99 1014.8
13 09:53 S 5 10.00 Fair CLR 78.1 61 56% 80 30 1015.0
13 08:53 Calm 10.00 Fair CLR 75 63 66% 77 30 1015.2
13 07:53 Calm 10.00 Fair CLR 71.1 63 76% 30 1015.0
13 06:53 Calm 7.00 Fair CLR 64.9 61 66.9 63 87% 29.98 1014.3
13 05:53 Calm 8.00 Fair CLR 63 59 87% 29.96 1013.7
13 03:53 Calm 10.00 Fair CLR 64 61 90% 29.94 1013.2
13 02:53 Calm 10.00 Fair CLR 64.9 61 87% 29.94 1013.2
13 01:53 Calm 10.00 Fair CLR 64.9 62.1 90% 29.95 1013.5
13 00:53 Calm 10.00 Fair CLR 66.9 63 84.9 66.9 87% 29.96 1013.9
12 23:53 Calm 10.00 Fair CLR 68 63 84% 29.96 1013.9
12 22:53 Calm 10.00 Fair CLR 70 63 79% 29.96 1013.9
12 21:53 Calm 10.00 Fair CLR 72 63 73% 29.95 1013.4
12 20:53 Calm 10.00 Fair CLR 73.9 64 71% 29.94 1013.1
12 19:53 Calm 10.00 Fair CLR 80.1 64.9 60% 82 29.95 1013.3
12 18:53 E 3 10.00 Fair CLR 84.9 60.1 87.1 82.9 43% 85 29.94 1013.1
12 17:53 E 6 10.00 Fair CLR 84.9 59 42% 85 29.94 1013.2
12 16:53 SW 5 10.00 Fair CLR 86 59 40% 85 29.96 1013.7
12 15:53 E 6 10.00 Fair CLR 87.1 59 39% 86 29.98 1014.3
12 14:53 Vrbl 3 10.00 Fair CLR 84.9 60.1 43% 85 29.99 1014.9
12 13:53 S 6 10.00 Partly Cloudy SCT049 84 61 46% 84 30 1015.3
12 12:53 Calm 10.00 Fair CLR 84 62.1 84 64.9 48% 85 30.02 1015.8
12 11:53 S 3 10.00 Fair CLR 82 61 49% 83 30.03 1016.2
12 10:53 Calm 10.00 Fair CLR 79 59 50% 80 30.04 1016.4
12 09:53 Vrbl 5 10.00 Fair CLR 77 59 54% 79 30.05 1016.7
12 08:53 Calm 10.00 Fair CLR 75.9 60.1 58% 78 30.05 1016.7
12 06:53 Calm 10.00 Fair CLR 64.9 62.1 69.1 64 90% 30.03 1016.1
12 05:53 Calm 10.00 Fair CLR 64 61 90% 30.02 1015.9
12 04:53 Calm 10.00 Fair CLR 64.9 62.1 90% 30.01 1015.4
12 03:53 Calm 10.00 Fair CLR 66.9 63 87% 29.99 1014.9
12 02:53 Calm 10.00 Fair CLR 68 63 84% 29.99 1014.7
12 01:53 Calm 10.00 Mostly Cloudy BKN055 68 63 84% 29.99 1014.7
12 00:53 Calm 10.00 Fair CLR 68 62.1 81 68 81% 29.98 1014.6
11 23:53 Calm 10.00 Fair CLR 69.1 62.1 78% 29.98 1014.5
11 22:53 Calm 10.00 Fair CLR 69.1 64 84% 29.98 1014.3
11 21:53 Calm 10.00 Fair CLR 70 63 79% 29.95 1013.5
11 20:53 Calm 10.00 Fair CLR 71.1 63 76% 29.94 1013.1
11 19:53 Calm 10.00 Fair CLR 75 63 66% 77 29.93 1012.8
11 18:53 Calm 10.00 Fair CLR 81 60.1 84.9 80.1 49% 82 29.92 1012.5
11 17:53 Calm 10.00 A Few Clouds FEW055 82 60.1 47% 82 29.93 1012.8
11 16:53 Vrbl 3 10.00 Mostly Cloudy BKN050 84 57.9 41% 83 29.95 1013.6
11 15:53 Vrbl 3 10.00 Fair CLR 84.9 57.9 40% 84 29.97 1014.1
11 13:53 Calm 10.00 Fair CLR 81 60.1 49% 82 29.98 1014.5
11 12:53 Calm 10.00 Fair CLR 81 60.1 81 64.9 49% 82 29.99 1014.9
11 11:53 SE 5 10.00 Fair CLR 78.1 59 52% 79 30 1015.2
11 10:53 E 8 10.00 Fair CLR 78.1 59 52% 79 30 1015.1
11 09:53 E 6 10.00 Fair CLR 73.9 57.9 57% 30.01 1015.4
Date Time (cdt) Wind (mph) Vis. (mi.) Weather Sky Cond. Air Dwpt Max. Min. Relative Humidity Wind Chill (°F) Heat Index (°F) altimeter (in) sea level (mb) 1 hr 3 hr 6 hr
6 hour
Temperature (ºF) Pressure Precipitation (in)